Location: Allos
(44.2333°N, 6.6333°E)
Time: 10:03:27
(UTC+00:00)

USA 215 - Pass Details

Date: 01 December 2020
Orbit: 1098 x 1110 km, 123.0° (Epoch: 22 January)

Event Time Altitude Azimuth Distance (km) Brightness Sun altitude
Exits shadow 16:59:29 14° 70° (ENE) 2,689 4.6 -11.1°
Maximum altitude 17:04:22 33° 128° (SE) 1,785 4.1 -12.0°
Drops below altitude 10° 17:10:08 10° 189° (S) 2,964 5.9 -12.9°
Sets 17:12:54 0° 199° (SSW) 3,918 6.7 -13.4°
